Temp
14 14 14 15 15 15 16 16 17 17 18 18 19 19 20 20 21 21 22 24 24 24 24 24 24 24 25 26 27 28 29 29 28 29 25 26 28 31 29 29 28 25 24 22 16
14 14 14 14 15 15 15 16 17 17 17 18 19 19 20 20 21 22 23 24 24 24 24 23 24 25 26 28 28 29 29 30 29 31 29 29 31 31 31 29 24 23 22 18 16
13 14 14 14 14 15 15 15 16 17 17 18 18 19 20 20 20 24 24 24 24 24 24 24 26 27 28 28 30 30 30 32 32 31 32 32 32 32 32 30 24 22 20 17 16
13 13 14 13 14 14 15 15 16 16 17 17 18 19 19 20 23 24 24 24 24 24 24 23 27 28 29 29 30 30 31 31 32 32 31 32 31 32 30 25 24 23 20 18 17
13 13 13 13 14 14 14 15 16 16 16 17 17 18 19 19 22 23 24 24 24 24 23 25 27 28 29 30 30 31 32 32 31 31 31 30 31 26 25 24 24 22 20 19 18
12 13 13 13 14 14 14 15 16 16 16 16 17 17 18 20 24 24 23 23 23 23 24 25 27 28 29 30 30 31 31 31 31 31 31 30 30 26 23 24 24 23 21 20 19
12 13 13 13 14 14 14 15 16 16 16 16 17 17 16 21 24 25 23 24 24 24 25 26 27 28 29 29 29 30 30 31 31 31 31 28 29 26 24 24 24 24 22 20 19
12 12 12 13 13 14 14 15 16 16 16 16 16 16 18 23 23 23 24 24 25 26 26 27 27 28 28 28 29 30 30 28 31 31 26 27 25 27 26 26 25 23 22 21 20
12 12 12 13 14 14 14 15 16 16 16 17 17 16 21 23 23 23 24 25 25 25 26 26 26 27 28 28 28 29 28 29 29 29 27 26 27 27 27 27 25 23 21 20 19
12 12 12 13 14 14 15 15 16 16 16 16 16 17 20 24 25 24 24 25 26 26 26 26 26 27 28 28 26 28 29 29 28 28 28 27 26 28 28 26 25 22 20 19 18
12 12 12 13 13 14 15 16 15 14 15 20 22 21 24 24 23 23 24 25 26 26 26 27 26 26 28 29 29 29 29 29 28 27 26 27 26 25 25 25 23 21 19 18 16
12 12 12 13 13 14 15 15 17 15 18 19 20 22 23 22 24 24 25 25 26 26 27 27 26 29 30 30 28 28 28 28 30 31 29 26 23 22 21 21 22 20 18 16 15
11 12 12 13 13 14 14 16 15 15 18 22 22 22 23 23 24 26 25 26 26 26 27 27 29 30 29 28 28 28 27 28 28 30 30 27 21 21 20 20 19 18 17 15 14
11 12 12 13 14 14 15 14 14 15 20 23 23 23 24 23 25 26 26 26 27 27 27 28 29 29 28 27 28 27 29 29 28 28 26 30 22 21 20 19 18 17 16 15 13
11 12 12 13 13 15 14 14 13 14 21 25 24 23 24 24 26 26 26 27 27 27 28 27 28 28 27 27 28 27 29 28 27 27 27 28 17 17 23 18 17 16 15 14 13
11 12 12 11 13 12 13 15 14 18 21 24 24 24 24 25 26 26 26 26 27 28 28 28 29 28 28 28 28 28 27 27 27 27 25 27 26 20 20 19 17 15 14 13 12
11 11 12 12 12 12 14 14 18 21 26 24 24 25 25 25 26 26 26 26 26 25 25 27 28 28 28 27 28 27 26 24 24 24 25 27 20 19 17 17 17 14 12 12 11
11 11 12 13 12 13 13 17 19 25 25 27 26 25 25 26 26 26 26 26 27 27 27 27 26 28 28 27 26 27 27 25 23 24 25 25 19 17 17 15 14 13 12 11 10
10 11 12 13 13 13 13 18 23 26 27 26 26 25 26 26 26 26 26 27 27 27 25 26 26 27 27 27 27 27 26 27 25 26 25 20 18 18 17 16 15 13 12 11 10
10 9 11 12 13 13 15 18 23 24 26 27 25 26 25 26 25 25 26 26 26 26 26 26 25 27 27 27 27 27 27 25 24 21 18 20 20 19 19 17 16 14 12 11 10
9 11 11 12 13 13 16 21 23 23 23 25 26 26 26 26 26 25 26 25 25 26 26 26 26 25 26 26 25 26 25 25 25 25 23 22 18 19 18 17 15 14 12 11 10
9 13 10 13 14 17 18 22 20 23 22 24 24 26 26 26 26 26 24 24 23 24 25 24 24 24 25 26 26 26 25 24 22 22 23 23 16 18 17 16 15 13 12 11 10
12 12 10 11 16 18 20 21 21 22 23 24 24 25 26 25 24 25 23 22 22 24 22 24 24 23 24 24 25 24 24 24 24 23 23 21 16 18 17 16 14 13 11 11 10
10 14 12 11 14 17 19 20 20 21 23 24 24 24 24 24 25 23 22 22 22 22 20 19 24 23 21 21 23 23 23 23 23 22 22 20 17 18 17 16 14 13 12 11 10
11 16 15 14 15 18 20 21 21 20 22 23 23 24 24 23 23 23 23 22 22 21 22 23 22 23 23 23 23 23 23 22 22 22 21 20 18 17 17 16 14 13 12 11 10
11 15 15 17 17 17 16 20 21 22 22 22 23 24 24 23 24 23 23 23 22 23 23 23 21 22 21 23 22 21 22 21 21 21 21 20 17 17 16 15 14 13 12 11 10
11 12 12 15 17 17 18 20 22 22 20 23 23 24 22 22 22 22 22 23 23 23 22 22 21 21 21 22 21 19 20 21 20 20 20 18 17 18 17 16 15 13 12 11 10
Height
1529 1528 1528 1527 1527 1526 1526 1525 1525 1524 1522 1522 1521 1520 1518 1515 1514 1513 1511 1512 1511 1511 1511 1512 1512 1515 1515 1512 1510 1508 1504 1494 1497 1496 1507 1502 1487 1480 1482 1487 1493 1498 1499 1501 1512
1526 1526 1525 1525 1524 1523 1523 1522 1522 1521 1520 1519 1519 1518 1516 1513 1510 1507 1509 1508 1509 1510 1510 1511 1511 1513 1512 1508 1506 1502 1500 1487 1490 1486 1492 1483 1485 1475 1478 1482 1495 1509 1503 1507 1515
1523 1523 1523 1522 1522 1521 1521 1520 1520 1518 1518 1517 1517 1516 1514 1512 1508 1503 1502 1505 1506 1507 1509 1511 1510 1509 1507 1504 1499 1495 1494 1482 1482 1489 1487 1482 1478 1476 1476 1483 1497 1506 1505 1513 1519
1520 1520 1520 1520 1519 1519 1519 1518 1518 1516 1516 1514 1514 1514 1513 1512 1508 1501 1503 1503 1504 1506 1507 1508 1507 1505 1503 1500 1495 1492 1487 1484 1481 1483 1485 1483 1481 1480 1477 1491 1495 1507 1509 1515 1522
1517 1517 1518 1518 1517 1517 1516 1515 1515 1515 1514 1512 1512 1512 1512 1511 1502 1501 1501 1501 1501 1504 1505 1507 1505 1505 1501 1497 1492 1487 1485 1482 1481 1481 1482 1483 1484 1494 1498 1506 1510 1515 1519 1516 1521
1514 1515 1515 1515 1515 1515 1514 1513 1513 1513 1512 1511 1511 1510 1511 1509 1501 1499 1501 1500 1501 1503 1505 1506 1503 1502 1498 1495 1492 1486 1484 1482 1482 1480 1482 1484 1485 1487 1499 1505 1500 1517 1526 1525 1524
1511 1512 1512 1512 1512 1512 1512 1510 1510 1511 1510 1509 1508 1509 1508 1500 1499 1500 1500 1501 1502 1503 1504 1503 1502 1500 1498 1497 1494 1490 1488 1484 1481 1478 1475 1483 1487 1494 1506 1500 1500 1507 1518 1523 1526
1507 1508 1509 1509 1509 1510 1509 1508 1507 1508 1508 1507 1507 1507 1501 1497 1496 1497 1499 1500 1500 1501 1501 1500 1500 1500 1498 1496 1491 1488 1486 1492 1475 1473 1487 1491 1504 1490 1499 1497 1498 1507 1516 1523 1526
1505 1506 1506 1507 1507 1507 1507 1505 1505 1506 1505 1504 1506 1506 1500 1492 1492 1493 1495 1497 1497 1500 1500 1500 1501 1500 1498 1496 1497 1488 1496 1483 1481 1482 1486 1499 1492 1497 1494 1495 1501 1510 1518 1524 1531
1502 1504 1504 1505 1504 1504 1505 1504 1503 1503 1504 1503 1504 1509 1493 1490 1489 1491 1493 1494 1494 1497 1498 1499 1499 1498 1493 1493 1504 1491 1484 1483 1486 1486 1487 1493 1496 1493 1492 1496 1501 1512 1521 1529 1534
1500 1502 1502 1503 1502 1503 1503 1503 1504 1502 1502 1494 1494 1491 1489 1489 1488 1490 1490 1493 1493 1493 1495 1494 1497 1497 1486 1480 1477 1476 1476 1480 1479 1477 1484 1496 1499 1501 1504 1502 1510 1518 1523 1530 1538
1498 1500 1501 1501 1502 1501 1502 1502 1502 1503 1496 1490 1491 1490 1490 1490 1486 1485 1487 1491 1491 1489 1488 1490 1491 1481 1476 1473 1478 1480 1483 1483 1474 1468 1475 1490 1509 1515 1517 1519 1520 1526 1530 1535 1543
1497 1498 1499 1499 1501 1501 1501 1503 1502 1500 1497 1484 1486 1486 1487 1489 1483 1480 1485 1486 1486 1487 1482 1485 1477 1472 1477 1477 1482 1482 1486 1484 1482 1470 1469 1484 1515 1516 1521 1525 1532 1534 1537 1540 1547
1496 1496 1498 1499 1503 1502 1503 1501 1500 1499 1491 1479 1482 1481 1484 1485 1482 1476 1480 1483 1482 1482 1480 1478 1472 1474 1480 1483 1482 1489 1473 1475 1478 1483 1494 1466 1515 1518 1523 1533 1538 1537 1540 1544 1550
1494 1495 1497 1499 1499 1502 1501 1499 1499 1500 1493 1472 1475 1478 1479 1481 1472 1477 1478 1478 1477 1476 1478 1480 1475 1478 1482 1484 1479 1483 1474 1478 1479 1482 1480 1474 1531 1529 1516 1533 1540 1540 1544 1548 1551
1492 1493 1495 1498 1498 1500 1498 1499 1500 1500 1489 1470 1471 1474 1477 1478 1472 1474 1477 1479 1476 1472 1474 1474 1470 1473 1476 1475 1475 1475 1479 1479 1478 1479 1494 1474 1481 1528 1525 1531 1539 1543 1548 1551 1552
1490 1491 1493 1494 1497 1496 1497 1499 1497 1490 1456 1469 1469 1470 1472 1473 1470 1473 1475 1477 1477 1487 1483 1474 1473 1472 1477 1481 1475 1478 1486 1502 1499 1494 1493 1470 1509 1529 1535 1536 1540 1549 1553 1552 1553
1488 1489 1490 1493 1493 1495 1498 1498 1494 1457 1457 1453 1462 1467 1469 1466 1468 1470 1473 1475 1470 1470 1471 1475 1485 1470 1471 1479 1481 1476 1478 1494 1509 1500 1489 1481 1524 1539 1541 1547 1549 1553 1554 1553 1555
1487 1489 1489 1491 1493 1495 1499 1491 1468 1453 1450 1457 1462 1469 1466 1466 1469 1472 1471 1468 1466 1469 1481 1477 1478 1471 1475 1476 1477 1476 1482 1469 1484 1478 1486 1516 1527 1532 1536 1545 1549 1550 1552 1553 1556
1486 1489 1490 1489 1491 1495 1495 1479 1462 1460 1454 1455 1465 1461 1469 1468 1474 1474 1474 1470 1473 1476 1477 1475 1485 1474 1476 1477 1475 1477 1473 1488 1491 1515 1533 1522 1522 1528 1529 1538 1545 1549 1552 1554 1557
1486 1488 1486 1489 1491 1494 1487 1471 1464 1465 1465 1461 1456 1459 1457 1465 1467 1472 1473 1477 1479 1478 1478 1476 1479 1484 1478 1480 1483 1482 1487 1484 1484 1487 1502 1508 1536 1531 1536 1539 1545 1550 1553 1555 1558
1484 1483 1483 1487 1492 1485 1479 1468 1470 1467 1469 1465 1462 1455 1456 1460 1466 1466 1475 1479 1486 1484 1481 1483 1484 1487 1485 1481 1481 1482 1489 1490 1505 1505 1497 1499 1544 1538 1541 1544 1548 1552 1554 1557 1560
1479 1480 1483 1485 1481 1475 1473 1472 1472 1469 1467 1465 1463 1460 1460 1467 1475 1470 1481 1488 1489 1487 1489 1488 1489 1497 1491 1490 1485 1489 1491 1491 1491 1495 1500 1509 1545 1539 1543 1547 1550 1554 1557 1559 1561
1475 1475 1482 1484 1478 1473 1471 1473 1473 1471 1467 1465 1465 1467 1468 1470 1472 1478 1487 1491 1490 1491 1492 1491 1490 1496 1509 1506 1498 1499 1498 1497 1497 1507 1503 1515 1533 1534 1539 1546 1552 1556 1558 1561 1563
1471 1464 1468 1475 1475 1471 1468 1468 1469 1472 1470 1469 1470 1469 1470 1477 1476 1480 1484 1490 1492 1494 1492 1491 1498 1495 1497 1498 1500 1501 1502 1502 1507 1505 1512 1519 1528 1536 1542 1547 1552 1556 1559 1562 1564
1468 1464 1467 1463 1468 1471 1468 1465 1466 1467 1468 1470 1470 1467 1468 1476 1475 1480 1484 1486 1489 1492 1493 1494 1504 1500 1506 1501 1503 1509 1507 1510 1512 1512 1514 1519 1537 1541 1546 1549 1553 1557 1559 1561 1564
1468 1467 1468 1465 1467 1470 1467 1466 1464 1465 1471 1468 1467 1468 1475 1481 1482 1481 1484 1485 1489 1493 1496 1497 1501 1505 1511 1505 1509 1522 1516 1515 1519 1520 1520 1530 1536 1538 1542 1548 1552 1555 1558 1561 1564
Wind_Speed
21 20 19 19 18 17 17 17 17 17 15 14 14 14 16 16 14 13 12 13 14 15 11 11 13 13 13 18 19 19 14 16 10 16 8 9 26 6 4 11 15 10 11 22 33
20 19 18 17 17 16 16 16 17 17 16 14 14 14 15 17 17 17 14 18 16 16 14 15 15 14 17 16 20 19 13 22 10 17 9 20 16 10 1 18 20 7 20 31 30
19 18 18 17 16 15 15 15 16 15 16 14 14 13 13 15 17 10 12 15 19 19 14 14 16 16 19 20 23 20 17 21 12 7 16 16 13 9 6 14 11 18 27 29 27
19 18 17 17 16 15 15 14 15 14 15 13 13 14 11 10 5 2 4 10 14 16 16 16 21 15 17 17 24 18 22 26 25 14 7 14 14 15 22 9 9 22 26 26 24
19 18 17 17 16 15 15 13 14 14 13 12 12 13 9 9 19 11 9 9 12 17 18 16 17 18 16 19 21 19 19 20 23 15 19 12 17 29 34 29 27 22 22 23 22
19 18 17 16 16 15 15 13 13 14 13 12 11 12 10 12 4 5 3 3 7 14 16 18 19 17 19 19 17 23 21 18 17 19 20 9 13 10 14 13 19 8 9 12 16
17 18 16 16 16 15 15 12 12 14 13 12 11 11 12 22 6 4 9 8 10 13 16 17 17 18 11 15 19 23 18 17 21 24 18 14 13 14 3 7 10 16 14 13 13
15 16 15 15 14 15 15 11 11 12 12 10 9 8 11 3 14 15 12 12 12 12 16 17 13 18 18 18 23 16 16 16 19 15 16 8 9 10 19 7 22 18 15 13 14
13 14 13 14 12 13 12 11 10 10 7 6 3 7 9 6 14 12 13 15 14 14 13 13 11 15 18 16 14 15 17 23 10 4 12 17 14 5 9 8 21 20 15 16 16
11 12 12 12 10 10 9 8 8 6 4 4 4 7 15 11 8 9 12 13 15 14 14 13 15 13 14 14 15 17 19 8 11 7 10 13 13 11 16 17 22 22 18 16 15
10 11 10 9 8 7 5 4 4 4 13 12 5 12 3 5 5 10 12 13 14 16 14 18 12 14 18 18 20 15 15 10 11 14 18 18 12 18 20 19 19 19 18 18 19
9 10 9 8 7 4 2 3 3 4 9 22 15 15 11 7 6 13 14 17 18 16 19 15 16 16 17 12 8 11 15 15 16 17 4 17 20 18 20 24 20 19 20 20 16
9 9 7 6 6 6 0 4 5 5 6 11 13 15 13 12 14 16 15 19 15 16 17 17 17 7 7 8 10 11 14 15 18 15 12 16 16 18 19 21 18 18 17 17 16
10 8 6 4 3 1 4 3 6 1 5 12 8 8 14 10 9 9 15 18 13 16 16 16 17 9 5 11 10 15 14 13 11 11 13 15 2 14 15 14 14 16 16 15 13
10 8 7 11 4 2 2 4 3 1 4 15 10 7 10 14 13 11 11 12 14 13 12 15 10 13 8 13 15 16 13 8 14 14 16 19 9 7 10 13 11 14 14 13 13
11 9 7 6 8 0 7 5 1 5 5 7 8 9 14 14 11 16 12 10 10 10 11 14 5 3 8 11 8 8 13 11 15 13 13 18 4 8 5 10 12 14 13 13 14
12 11 12 11 7 11 4 2 4 6 14 9 10 14 16 12 9 11 13 12 8 6 10 13 14 9 4 10 10 9 9 9 11 11 7 9 12 10 10 11 11 12 11 13 15
11 12 13 15 11 7 4 5 7 11 9 11 15 15 11 9 10 15 13 12 13 8 11 10 11 12 7 4 10 10 11 8 15 11 6 1 10 7 11 12 12 11 12 13 12
10 8 10 12 12 9 4 7 5 3 10 10 15 14 10 13 4 7 8 7 4 8 6 7 6 8 4 3 8 5 6 6 8 11 10 8 12 17 17 12 11 12 12 12 12
9 4 6 11 12 10 5 7 2 7 2 12 12 14 10 12 7 8 10 6 4 4 5 7 1 3 6 5 4 7 4 6 3 4 5 8 11 7 8 11 10 11 11 11 11
11 5 11 11 12 7 7 7 3 1 3 4 13 9 9 14 12 11 8 6 2 4 5 7 5 6 5 1 6 5 7 7 7 7 5 4 6 9 9 9 10 10 10 10 10
6 3 7 17 8 9 9 4 3 7 6 4 7 7 2 6 6 7 12 7 2 5 1 5 5 2 8 5 5 3 8 8 5 12 9 6 5 8 9 10 11 10 10 9 9
6 6 9 15 6 9 5 5 5 6 10 4 1 5 1 5 3 5 8 6 1 3 5 6 2 6 3 2 3 5 8 8 7 5 8 3 6 10 11 9 10 10 9 9 9
5 4 5 12 12 5 10 10 7 5 4 3 5 4 5 5 1 6 8 3 6 6 3 3 2 5 2 5 9 3 6 7 5 3 6 10 14 10 8 9 9 8 8 8 7
5 6 10 8 9 8 11 12 13 6 4 8 6 10 7 6 6 8 10 9 6 3 1 3 2 4 8 6 5 6 6 9 9 8 8 14 14 10 9 11 10 8 7 6 6
4 1 6 8 15 9 5 11 13 13 9 7 8 9 9 5 2 9 10 9 5 6 3 1 2 3 3 4 5 6 6 8 6 7 7 12 12 11 10 10 8 7 5 4 4
3 3 2 2 9 9 8 9 14 10 3 5 3 6 14 14 17 19 16 14 7 6 3 2 5 3 4 3 4 2 5 7 8 9 11 11 10 7 9 10 10 7 5 6 7
Wind_Direction
273 275 279 281 283 286 287 287 288 290 291 296 300 305 304 302 293 283 272 263 236 247 253 231 227 236 250 250 245 260 277 275 30 335 145 334 295 122 105 131 73 62 44 155 160
269 272 276 279 281 284 286 287 286 286 287 289 294 300 304 307 300 276 262 249 249 250 237 209 221 229 241 251 244 235 256 266 70 303 279 216 207 145 62 140 97 35 116 140 148
266 268 272 276 278 282 286 289 288 286 288 287 287 291 300 311 312 250 237 238 249 242 222 222 227 223 238 244 250 238 250 273 285 261 300 307 313 20 287 64 147 159 142 147 151
264 266 268 272 274 278 282 286 288 288 289 289 283 280 290 300 281 172 258 263 250 225 213 240 235 249 242 250 249 261 262 277 291 295 298 309 341 321 17 79 110 171 151 150 153
263 263 264 270 271 274 277 283 286 288 289 292 285 279 286 263 260 251 284 278 216 207 213 225 235 238 252 251 261 257 265 275 292 298 306 351 324 67 60 45 76 116 147 151 158
261 261 262 267 270 272 274 278 283 285 288 291 284 274 276 256 217 279 209 283 196 200 213 230 239 242 261 267 282 287 299 280 280 289 301 295 298 95 114 108 74 62 157 153 151
259 259 261 265 268 271 272 275 279 286 290 289 279 268 254 237 204 235 221 217 212 214 222 232 247 259 266 267 266 276 282 284 277 274 256 17 275 64 84 211 198 168 147 146 147
257 257 259 261 266 270 272 276 279 284 286 284 271 248 252 235 246 252 228 234 228 227 228 250 256 256 268 272 284 277 265 265 265 317 52 54 264 183 199 194 135 121 129 130 127
256 256 257 262 263 268 274 276 280 283 280 286 218 208 256 243 231 229 221 227 223 224 228 242 265 258 252 251 258 259 258 258 304 190 130 201 266 97 253 123 124 119 118 117 118
254 255 258 263 259 269 272 283 281 260 265 196 216 231 251 233 210 202 212 220 226 216 220 223 237 239 239 252 249 248 253 292 262 34 341 328 81 52 69 75 114 109 111 113 119
250 254 258 260 256 264 273 282 287 234 208 209 268 223 130 225 241 233 215 213 229 210 218 212 234 238 241 233 242 277 294 283 164 184 217 242 93 58 35 108 104 114 114 116 108
248 252 259 257 246 229 180 264 19 313 289 231 246 241 264 266 243 220 194 199 213 229 210 237 221 244 260 276 330 304 302 300 296 290 113 105 89 79 61 38 79 97 106 106 114
247 249 253 252 233 186 112 299 315 307 261 207 225 234 231 220 231 198 196 207 208 226 234 230 240 175 330 300 288 273 270 279 281 303 310 123 111 96 86 78 74 81 99 110 123
244 240 239 211 189 251 242 251 301 225 265 157 199 215 193 211 244 227 191 204 230 226 237 250 240 277 259 275 279 284 295 314 312 295 280 282 131 102 97 92 84 89 98 107 122
238 228 221 192 170 168 198 276 306 112 243 156 141 146 190 203 140 195 193 226 229 224 246 243 239 270 249 268 277 269 288 306 293 284 288 276 110 198 132 105 95 92 97 110 124
231 219 207 202 213 192 271 236 117 227 225 156 145 182 169 214 230 151 183 237 237 239 222 269 312 280 258 271 263 307 288 279 271 261 262 265 264 146 80 92 110 98 107 117 118
227 217 202 190 163 222 193 137 210 250 142 159 173 161 182 193 195 172 188 200 201 200 216 222 243 204 234 279 261 231 263 273 260 234 248 20 72 91 88 60 88 116 123 119 119
223 225 215 209 201 203 190 217 240 211 205 151 144 179 182 156 162 182 185 193 226 272 281 223 196 191 138 256 302 296 237 256 303 311 323 24 134 101 101 104 105 112 116 117 120
222 226 224 209 206 187 219 214 213 257 127 153 164 185 198 175 150 208 230 232 153 208 312 324 119 94 53 311 270 319 259 330 306 293 277 91 106 137 133 118 111 112 114 116 124
182 216 234 216 187 169 234 253 282 350 333 184 182 194 166 180 207 201 200 58 86 5 333 341 192 121 119 247 209 278 340 307 53 328 14 113 103 107 86 113 117 109 110 118 126
172 188 198 225 169 192 225 241 242 105 335 282 221 199 190 177 201 209 165 92 358 127 302 338 260 122 189 261 33 346 33 347 336 305 311 314 83 53 66 72 97 104 117 127 132
179 213 194 175 189 202 234 254 327 181 218 266 278 201 186 148 206 189 102 55 26 331 188 56 322 309 91 60 359 21 24 355 348 328 325 308 80 69 75 89 105 107 112 121 129
207 145 174 161 211 200 208 210 247 197 200 201 219 1 173 163 151 115 88 42 37 35 13 5 271 277 191 87 54 33 4 354 334 276 284 356 118 120 106 87 101 111 113 121 130
246 145 149 210 264 259 191 207 204 281 138 198 166 192 202 144 212 148 116 85 83 83 31 333 18 339 103 164 259 46 24 360 332 296 359 93 135 129 104 108 105 103 113 121 129
224 195 172 192 229 229 186 185 187 172 222 195 173 197 179 183 164 169 122 138 132 159 83 328 105 52 66 71 50 44 46 44 47 11 59 78 84 81 66 73 80 98 107 114 117
271 329 171 181 194 208 165 194 191 181 167 176 196 195 163 161 238 144 154 151 136 169 101 332 119 111 82 87 75 75 73 84 45 65 72 117 99 92 110 124 116 105 102 106 104
210 261 307 114 170 190 185 205 201 136 14 191 258 141 79 61 47 64 67 59 89 141 107 129 157 198 145 31 35 150 44 67 76 42 21 79 93 153 119 78 60 112 96 86 94